Home > Weather > Kerman > Past weeks

Flag for Iran Weather for the Past 2 Weeks in Kerman, Iran

Now
39 °F

Scattered clouds.


Feels Like: 36 °F
Forecast: 10 / 50 °F
Wind: 5 mph from Northwest

Location: Kerman Airport

Current Time: Feb 12, 2016 at 12:35:24 PM

Latest Report: Feb 12, 2016 at 11:30 AM


Visibility: N/A

Pressure: 30.18 "Hg (24.29 "Hg at 1762m altitude)

Humidity: 70%

Dew point: 30 °F

Location of KermanLocation

Historic Weather in Kerman — Graph

°F

Kerman Temperature Yesterday

Maximum temperature yesterday: 59 °F (at 1:30 PM)
Minimum temperature yesterday: 18 °F (at 5:30 AM)
Average temperature yesterday: 41 °F

High & Low Weather Summary for the Past Weeks

 TemperatureHumidityPressure
High72 °F (Feb 7, 1:30 PM)100% (Feb 11, 9:30 PM)30.48 "Hg (Feb 11, 9:30 PM)
Low18 °F (Feb 11, 5:30 AM)0% (Feb 6, 1:30 PM)29.89 "Hg (Feb 11, 2:30 PM)
Average43 °F33%30.16 "Hg
* Reported Jan 28 11:30 AM — Feb 12 11:30 AM, Kerman, Weather by CustomWeather, © 2016

Note: Actual official high and low records may vary slightly from our data, if they occured in-between our weather recording intervals... More about our weather records

Advertising

Kerman Weather History for the Previous 24 Hours

 ConditionsComfort  
Time TempWeatherWind HumidityBarometerVisibility
11:30 AM
Fri, Feb 12
39 °FScattered clouds.5 mph70%30.18 "HgN/A
10:30 AM41 °FScattered clouds.No wind66%30.18 "HgN/A
9:30 AM39 °FScattered clouds.No wind65%30.18 "Hg5 mi
8:30 AM34 °FFog.7 mph93%30.18 "Hg3 mi
7:30 AM30 °FIce fog.7 mph93%30.15 "Hg3 mi
6:30 AM28 °FIce fog.No wind100%30.15 "Hg2 mi
5:30 AM28 °FIce fog.5 mph100%30.12 "Hg2 mi
4:30 AM28 °FIce fog.5 mph100%30.09 "Hg2 mi
3:30 AM30 °FLight snow. Mostly cloudy.5 mph93%30.09 "Hg2 mi
2:30 AM28 °FLight snow. Mostly cloudy.12 mph100%30.07 "Hg2 mi
1:30 AM30 °FSnow. Mostly cloudy.14 mph100%30.07 "Hg1 mi
12:30 AM32 °FSnow. Mostly cloudy.7 mph93%30.04 "Hg1 mi
11:30 PM
Thu, Feb 11
32 °FHeavy snow. Dense fog.7 mph93%30.04 "Hg0 mi
10:30 PM32 °FSnow. Mostly cloudy.9 mph100%30.04 "Hg1 mi
9:30 PM32 °FSnow. Mostly cloudy.9 mph100%30.04 "Hg1 mi
8:30 PM39 °FPartly cloudy.12 mph75%30.04 "HgN/A
7:30 PM41 °FPartly cloudy.7 mph66%30.01 "HgN/A
6:30 PM43 °FPartly cloudy.21 mph53%29.98 "Hg5 mi
5:30 PM48 °FBroken clouds.16 mph40%29.95 "Hg5 mi
5:00 PM50 °FBroken clouds.23 mph25%29.95 "HgN/A
4:30 PM54 °FMore clouds than sun.16 mph21%29.95 "HgN/A
4:00 PM55 °FBroken clouds.14 mph7%29.92 "HgN/A
3:30 PM55 °FBroken clouds.14 mph7%29.89 "HgN/A
3:00 PM57 °FBroken clouds.7 mph6%29.89 "HgN/A
2:30 PM57 °FBroken clouds.7 mph6%29.89 "HgN/A
2:00 PM57 °FScattered clouds.7 mph7%29.92 "HgN/A
1:30 PM59 °FPassing clouds.7 mph7%29.92 "HgN/A
1:00 PM57 °FSunny.7 mph9%29.95 "Hg10 mi
12:30 PM57 °FSunny.No wind9%29.98 "Hg10 mi
Weather by CustomWeather, © 2016

See weather overviewHow to use our weather pages